Find Kosmos-2351

NORAD ID: 25327 Int'l Des: 1998-027 Owner: PVO Country: RU operational
MEOELLIPTICALHEO_ELLIPTICALSEMI_SYNCMOLNIYA

Historical Position — Jun 27, 2026

Loading 3D Globe...

About Kosmos-2351

Kosmos-2351 (NORAD 25327) is a satellite launched May 7, 1998 by PVO of RU. It operates in MEO, ELLIPTICAL, HEO_ELLIPTICAL, SEMI_SYNC, MOLNIYA orbit with a mass of 1250.00 kg. Last tracked position: Jun 27, 2026.

Altitude History

Loading altitude history...

Two-Line Element Set

1 25327U 98027A 26178.73170263 .00000712 00000-0 00000+0 0 9997
2 25327 63.7483 117.8405 7034656 180.1554 179.5965 2.00542477206172
Epoch: Jun 27, 2026 • Age: 409 hours

Current Status

Position data unavailable
Launch Date May 7, 1998
Age 28.1 years
Type other

Technical Details

Classification Payload
Mass 1250.00 kg
Dry Mass 1150.00 kg
Total Mass 1250.00 kg
Length 4.00 m
Diameter 2.00 m
Span 5.00 m
Shape Cyl + 2 Pan
Manufacturer NPOL/KOMET
Bus Type Oko
Phase Status In Orbit
Owner/State PVO/RU

Most Searched